Voltar ao catálogo

STARLINK-32003

AtivoComunicaçõesVLEO
NORAD 60097·PAYLOAD·🇺🇸 United States

Lançado Jun 23, 2024 de Cape Canaveral Space Force Station

Loading…

Próximas Passagens (próximas 24 horas)

TLE

AtualizadoSource: CelesTrak SupGP

Época: Sep 14, 2026, 13:48 UTC

1 60097C 24117G   26257.57548611 -.00025436  00000+0 -75175-3 0  2572
2 60097  53.1570 237.5351 0001332  82.0966  48.1565 15.34393772    15

Acompanhe STARLINK-32003 em tempo real com AllMySat

Download on the App Store